User: anonymous   Login
Location: Unspecified
(0.0000°N, 0.0000°E)
Time: 00:59:45
(UTC+00:00)
Language:

STARLINK-3122 - Orbit

View from above orbital plane
View from above orbital plane
View from above satellite
View from above satellite

Ground track
Ground track

The orbit is defined by the following mean orbital elements,

1 49445U          26145.23953523 +.00000000 +00000-0 +32262-4 0 00008
2 49445  53.2116 235.8668 0000900  91.8118 268.2977 15.08833538    06
Epoch (UTC): 25 May 2026 05:44:55
Eccentricity: 0.0000900
inclination: 53.2116°
perigee height: 539 km
apogee height: 540 km
right ascension of ascending node: 235.8668°
argument of perigee: 91.8118°
revolutions per day: 15.08833538
mean anomaly at epoch: 268.2977°

The dashed part of the orbit path shows where the satellite is in the earth's shadow,  

DLR